Medford, WI

3:23 PM CDT on April 24, 2017 (GMT -0500)
Taylor County

Weather History for KMDZ - March, 2013

Change the Weather History Date:

Sunday, March 10, 2013

  Actual Average Record
Temperature  
Mean Temperature 32 °F -  
Max Temperature 35 °F 34 °F 55 °F (2012)
Min Temperature 28 °F 14 °F -20 °F (1972)
Degree Days  
Heating Degree Days 34    
Moisture  
Dew Point 31 °F    
Average Humidity 91    
Maximum Humidity 100    
Minimum Humidity 81    
Precipitation  
Precipitation 0.00 in - - ()
Sea Level Pressure  
Sea Level Pressure 29.78 in    
Wind  
Wind Speed 6 mph (NNE)    
Max Wind Speed 21 mph    
Max Gust Speed 28 mph    
Visibility 5 miles    
Events Fog , Rain , Snow    
Averages and records for this station are not official NWS values.
T = Trace of Precipitation, MM = Missing Value Source: NWS Daily Summary

Daily Weather History Graph

Daily Weather History Graph

Search for Another Location

Airport or City:

Trip Planner

Search our weather history database for the weather conditions in past years. The results will help you decide how hot, cold, wet, or windy it might be!

Date:

Astronomy

Mar. 10, 2013 Rise Set
Actual Time 7:22 AM CDT 7:01 PM CDT
Civil Twilight 6:53 AM CDT 7:30 PM CDT
Nautical Twilight 6:19 AM CDT 8:04 PM CDT
Astronomical Twilight 5:44 AM CDT 8:39 PM CDT
Moon 6:24 AM CDT (3/10) 6:08 PM CDT (3/10)
Length of Visible Light 12h 37m
Length of Day
11h 38m
Waning Crescent, 2% of the Moon is Illuminated
Mar 10
Waning Crescent
Mar 11
New
Mar 19
First Quarter
Mar 27
Full
Apr 2
Last Quarter

Hourly Weather History & Observations

Time (CDT) Temp. Windchill Dew Point Humidity Pressure Visibility Wind Dir Wind Speed Gust Speed Precip Events Conditions
12:15 AM 35.6 °F - 33.8 °F 93% 29.73 in 2.0 mi Calm Calm - N/A Rain Rain
12:35 AM 35.6 °F - 33.8 °F 93% 29.74 in 2.0 mi Calm Calm - N/A   Light Drizzle
12:55 AM 35.6 °F - 33.8 °F 93% 29.73 in 1.2 mi Calm Calm - N/A Rain Rain
1:15 AM 33.8 °F - 33.8 °F 100% 29.73 in 1.0 mi Calm Calm - N/A   Drizzle
1:35 AM 35.6 °F - 33.8 °F 93% 29.73 in 0.8 mi Calm Calm - N/A   Overcast
1:55 AM 35.6 °F - 33.8 °F 93% 29.72 in 0.8 mi Calm Calm - N/A Rain Light Rain
3:15 AM 35.6 °F - 33.8 °F 93% 29.72 in 0.5 mi Calm Calm - N/A Rain Rain
3:35 AM 33.8 °F - 33.8 °F 100% 29.72 in 0.2 mi Calm Calm - N/A Rain Light Rain
3:55 AM 33.8 °F - 33.8 °F 100% 29.72 in 0.2 mi Calm Calm - N/A   Light Drizzle
4:15 AM 33.8 °F - 33.8 °F 100% 29.71 in 0.2 mi Calm Calm - N/A Fog Fog
4:35 AM 33.8 °F - 33.8 °F 100% 29.73 in 0.2 mi Calm Calm - N/A Fog Fog
4:55 AM 33.8 °F - 33.8 °F 100% 29.73 in 0.2 mi Calm Calm - N/A Fog Fog
5:15 AM 33.8 °F - 32.0 °F 93% 29.73 in 0.2 mi Calm Calm - N/A Rain Light Rain
5:35 AM 33.8 °F - 33.8 °F 100% 29.74 in 0.2 mi Calm Calm - N/A Snow Light Snow
5:55 AM 33.8 °F 30.8 °F 33.8 °F 100% 29.72 in 0.5 mi NNE 3.5 mph - N/A Snow Light Snow
6:15 AM 33.8 °F 28.6 °F 33.8 °F 100% 29.70 in 0.8 mi NNE 5.8 mph - N/A   Overcast
7:35 AM 35.6 °F 29.2 °F 33.8 °F 93% 29.75 in 10.0 mi North 8.1 mph - N/A   Overcast
7:55 AM 35.6 °F 29.9 °F 33.8 °F 93% 29.76 in 10.0 mi North 6.9 mph - N/A   Overcast
8:15 AM 35.6 °F 28.6 °F 33.8 °F 93% 29.75 in 10.0 mi North 9.2 mph - N/A   Overcast
8:35 AM 35.6 °F 30.7 °F 33.8 °F 93% 29.78 in 10.0 mi North 5.8 mph - N/A   Overcast
8:55 AM 33.8 °F 27.7 °F 33.8 °F 100% 29.79 in 10.0 mi North 6.9 mph - N/A   Overcast
9:15 AM 35.6 °F 29.2 °F 33.8 °F 93% 29.80 in 3.0 mi North 8.1 mph - N/A Rain Rain
9:35 AM 33.8 °F 27.7 °F 33.8 °F 100% 29.81 in 7.0 mi North 6.9 mph - N/A Rain Rain
9:55 AM 33.8 °F 27.7 °F 33.8 °F 100% 29.82 in 7.0 mi North 6.9 mph - N/A Rain Light Rain
10:15 AM 33.8 °F 27.7 °F 33.8 °F 100% 29.82 in 3.0 mi North 6.9 mph - N/A Snow Light Snow
10:35 AM 33.8 °F 27.0 °F 33.8 °F 100% 29.83 in 4.0 mi North 8.1 mph - N/A Rain Light Rain
10:55 AM 33.8 °F 28.6 °F 33.8 °F 100% 29.84 in 7.0 mi North 5.8 mph - N/A Rain Light Rain
11:15 AM 33.8 °F 27.0 °F 32.0 °F 93% 29.86 in 7.0 mi North 8.1 mph - N/A Snow Light Snow
11:35 AM 33.8 °F 28.6 °F 32.0 °F 93% 29.87 in 4.0 mi North 5.8 mph - N/A Snow Light Snow
11:55 AM 35.6 °F 30.7 °F 32.0 °F 87% 29.87 in 3.0 mi North 5.8 mph - N/A Snow Light Snow
12:15 PM 33.8 °F 25.3 °F 32.0 °F 93% 29.86 in 2.5 mi NNE 11.5 mph 16.1 mph N/A Snow Light Snow
12:35 PM 33.8 °F 25.3 °F 32.0 °F 93% 29.84 in 3.0 mi North 11.5 mph - N/A Snow Light Snow
12:55 PM 35.6 °F 26.2 °F 32.0 °F 87% 29.83 in 3.0 mi NNE 15.0 mph - N/A Snow Light Snow
1:15 PM 35.6 °F 26.2 °F 32.0 °F 87% 29.83 in 7.0 mi NNE 15.0 mph 21.9 mph N/A Snow Light Snow
1:35 PM 35.6 °F 27.5 °F 30.2 °F 81% 29.83 in 10.0 mi North 11.5 mph - N/A   Overcast
1:55 PM 35.6 °F 26.2 °F 30.2 °F 81% 29.84 in 10.0 mi NNE 15.0 mph 20.7 mph N/A   Overcast
2:15 PM 35.6 °F 26.6 °F 32.0 °F 87% 29.82 in 7.0 mi NNE 13.8 mph 25.3 mph N/A Snow Light Snow
2:35 PM 35.6 °F 25.2 °F 30.2 °F 81% 29.79 in 10.0 mi NNE 18.4 mph 24.2 mph N/A Snow Light Snow
2:55 PM 35.6 °F 24.8 °F 30.2 °F 81% 29.78 in 10.0 mi NNE 19.6 mph 24.2 mph N/A   Overcast
3:15 PM 35.6 °F 26.2 °F 30.2 °F 81% 29.78 in 10.0 mi NNE 15.0 mph 20.7 mph N/A   Overcast
3:35 PM 35.6 °F 26.2 °F 30.2 °F 81% 29.80 in 10.0 mi NNE 15.0 mph - N/A   Overcast
3:55 PM 35.6 °F 27.1 °F 30.2 °F 81% 29.82 in 10.0 mi NNE 12.7 mph 17.3 mph N/A   Overcast
4:15 PM 35.6 °F 26.2 °F 30.2 °F 81% 29.81 in 10.0 mi NNE 15.0 mph - N/A   Overcast
4:35 PM 35.6 °F 25.2 °F 30.2 °F 81% 29.80 in 10.0 mi NNE 18.4 mph 25.3 mph N/A   Overcast
4:55 PM 35.6 °F 26.6 °F 30.2 °F 81% 29.80 in 10.0 mi NNE 13.8 mph - N/A   Overcast
5:15 PM 33.8 °F 24.3 °F 30.2 °F 87% 29.80 in 10.0 mi NE 13.8 mph - N/A Snow Light Snow
5:35 PM 33.8 °F 23.9 °F 30.2 °F 87% 29.80 in 10.0 mi NE 15.0 mph - N/A   Overcast
5:55 PM 33.8 °F 25.3 °F 30.2 °F 87% 29.79 in 10.0 mi NE 11.5 mph 20.7 mph N/A   Overcast
6:15 PM 33.8 °F 25.3 °F 30.2 °F 87% 29.80 in 10.0 mi NNE 11.5 mph - N/A   Overcast
6:35 PM 33.8 °F 24.3 °F 28.4 °F 81% 29.80 in 10.0 mi NE 13.8 mph 20.7 mph N/A   Overcast
6:55 PM 33.8 °F 24.8 °F 28.4 °F 81% 29.79 in 10.0 mi NNE 12.7 mph 18.4 mph N/A   Overcast
7:15 PM 33.8 °F 23.9 °F 28.4 °F 81% 29.78 in 5.0 mi NNE 15.0 mph 20.7 mph N/A Snow Light Snow
7:35 PM 32.0 °F 21.2 °F 28.4 °F 87% 29.78 in 4.0 mi NE 16.1 mph 23.0 mph N/A Snow Light Snow
7:55 PM 32.0 °F 21.6 °F 28.4 °F 87% 29.78 in 3.0 mi NE 15.0 mph 21.9 mph N/A Snow Light Snow
8:15 PM 32.0 °F 22.1 °F 28.4 °F 87% 29.78 in 2.5 mi NNE 13.8 mph 18.4 mph N/A Snow Light Snow
8:35 PM 30.2 °F 19.8 °F 28.4 °F 93% 29.78 in 1.8 mi NNE 13.8 mph - N/A Snow Light Snow
9:15 PM 30.2 °F 19.3 °F 28.4 °F 93% 29.77 in 1.0 mi NNE 15.0 mph 19.6 mph N/A Snow Snow
9:35 PM 30.2 °F 20.2 °F 28.4 °F 93% 29.78 in 0.8 mi North 12.7 mph 19.6 mph N/A Snow Snow
9:55 PM 30.2 °F 18.9 °F 28.4 °F 93% 29.76 in 1.0 mi NNE 16.1 mph 20.7 mph N/A Snow Light Snow
10:15 PM 30.2 °F 18.1 °F 28.4 °F 93% 29.76 in 0.8 mi NNE 18.4 mph 25.3 mph N/A Snow Snow
10:35 PM 30.2 °F 18.5 °F 28.4 °F 93% 29.76 in 0.5 mi NNE 17.3 mph 27.6 mph N/A Snow Heavy Snow
10:55 PM 28.4 °F 15.1 °F 26.6 °F 93% 29.75 in 0.5 mi NNE 20.7 mph 26.5 mph N/A Snow Heavy Snow
11:15 PM 28.4 °F 16.6 °F 26.6 °F 93% 29.75 in 0.8 mi NNE 16.1 mph 27.6 mph N/A Snow Light Snow
11:35 PM 28.4 °F 15.4 °F 26.6 °F 93% 29.73 in 0.5 mi NNE 19.6 mph - N/A Snow Snow
12:15 AM 28.4 °F 17.5 °F 26.6 °F 93% 29.72 in 0.8 mi NNE 13.8 mph 20.7 mph N/A Snow Snow
12:35 AM 28.4 °F 17.5 °F 26.6 °F 93% 29.71 in 0.8 mi North 13.8 mph 20.7 mph N/A Snow Snow
12:55 AM 28.4 °F 18.0 °F 26.6 °F 93% 29.70 in 0.8 mi NNE 12.7 mph 18.4 mph N/A Snow Snow